Regional Weather Roundup
Issued by NWS

Home | Current Version | Previous Version | Text Only | Print | Product List | Glossary On
Versions: 1 2 3 4 5 6 7 8 9 10 11 12 13 14 15 16 17 18 19 20 21 22 23 24 25 26 27 28 29 30 31 32 33 34 35 36 37 38 39 40 41 42 43 44 45 46 47 48 49 50
000
ASUS42 KFFC 251003
RWRGA
WEATHER ROUNDUP FOR GEORGIA
NATIONAL WEATHER SERVICE PEACHTREE CITY GA
600 AM EDT SUN JUN 25 2017

NOTE: "FAIR" INDICATES FEW OR NO CLOUDS BELOW 12,000 FEET WITH NO
SIGNIFICANT WEATHER AND/OR OBSTRUCTIONS TO VISIBILITY.

* = USE WITH CAUTION. THE STATIONS MARKED WITH AN ASTERISK MAY NOT
REPORT WEATHER SUCH AS PRECIPITATION, FOG, OR THUNDER AND ARE NOT
QUALITY CONTROLLED BY NWS.

THE REMARK "TC" DENOTES TEMPERATURE READING IN DEGREES CELSIUS.

GAZ001>058-251100-
NORTH GEORGIA

CITY           SKY/WX    TMP DP  RH WIND       PRES   REMARKS
ATLANTA        CLOUDY    68  65  90 NW7       30.09R
ATHENS         CLOUDY    70  70 100 NW5       30.08R
CHAMBLEE       CLOUDY    68  62  81 N3        30.09R
PEACHTREE CITY CLOUDY    68  66  93 NW3       30.09S
ROME           CLOUDY    70  62  76 N7        30.10S
WEST ATLANTA   PTCLDY    68  65  90 NW3       30.09S
GAINESVILLE    PTCLDY    66  64  93 NW3       30.11R
CARTERSVILLE   CLOUDY    65  65 100 CALM      30.11R


CITY           SKY/WX    TMP DP  RH WIND       PRES   REMARKS
DALTON*        CLOUDY    63  63 100 CALM      30.12S
MARIETTA       CLOUDY    67  62  84 NW3       30.09S
CANTON*        CLOUDY    68  63  83 CALM      30.11S
$$

GAZ059>098-102>109-251100-
CENTRAL GEORGIA

CITY           SKY/WX    TMP DP  RH WIND       PRES   REMARKS
AUGUSTA-BUSH   CLOUDY    74  72  93 NW3       30.05R
AUGUSTA-DANIEL PTCLDY    74  67  78 CALM      30.07R
COLUMBUS       CLOUDY    74  72  93 CALM      30.07R
MACON          CLOUDY    75  73  93 CALM      30.06R
ROBINS AFB     CLOUDY    75  74  97 CALM      30.05R


CITY           SKY/WX    TMP DP  RH WIND       PRES   REMARKS
LAGRANGE*      CLOUDY    73  72  98 CALM      30.10R
SYLVANIA*      DRIZZLE   76  76 100 CALM      30.05F
MILLEDGEVILLE* CLOUDY    70  70 100 CALM      30.06R
$$

GAZ099>101-110>166-251100-
SOUTH GEORGIA

CITY           SKY/WX    TMP DP  RH WIND       PRES   REMARKS
SAVANNAH       PTCLDY    77  72  84 CALM      30.05R
VALDOSTA       PTCLDY    73  72  96 S5        30.07R
ALMA           CLEAR     75  73  93 CALM      30.05S
ST SIMONS      CLEAR     78  75  90 SW6       30.06R
FT STEWART     PTCLDY    74  72  93 CALM      30.02S
ALBANY         MOCLDY    75  74  96 W5        30.08R
HUNTER AFB     PTCLDY    76  74  95 CALM      30.02S
MOODY AFB      CLEAR     75  73  92 S6        30.05R
BRUNSWICK      CLEAR     73  73 100 SW6       30.07R


CITY           SKY/WX    TMP DP  RH WIND       PRES   REMARKS
BAINBRIDGE*    CLEAR     79  77  94 CALM      30.07R
MOULTRIE*      CLOUDY    77  73  88 W3        30.07S
VIDALIA*       CLOUDY    75  73  94 CALM      30.05S
WAYCROSS*      MOCLDY    77  77 100 CALM      30.07R
DOUGLAS*       CLEAR     75  73  94 CALM      30.07S
$$



USA.gov is the U.S. government's official web portal to all federal, state and local government web resources and services.